Zurück zum Katalog

COSMOS 1014

AktivMilitärLEO
NORAD 10931·PAYLOAD·🇷🇺 Russia

Gestartet Jun 7, 1978 von Plesetsk Cosmodrome

Loading…

Nächste Überflüge (nächste 24 Stunden)

TLE

AktuellSource: Space-Track

Epoche: Sep 14, 2026, 06:42 UTC

1 10931U 78056B   26257.27924941 -.00000028  00000-0 -92001-4 0  9998
2 10931  74.0228 259.2695 0032542 141.6329 230.1461 12.40493955185866

Verfolge COSMOS 1014 in Echtzeit mit AllMySat

Download on the App Store